This is the latest recevied weather packets stored in our database for station/object KD4WXI. If no packets are shown the sender has not sent any weather packets the latest 10 day(s).
| Time | Temp. | Humidity | Pressure | Rain* | Wind** | Luminosity | Snow |
|---|---|---|---|---|---|---|---|
| 1777895610 | 7.22° C | 94% | 1017.7 hPa | 0 mm | - | 65 W/m² | - |
| 1777895307 | 6.11° C | 98% | 1018 hPa | 0 mm | - | 60 W/m² | - |
| 1777895005 | 5.56° C | 99% | 1018 hPa | 0 mm | - | 53 W/m² | - |
| 1777894702 | 5.56° C | 99% | 1017.8 hPa | 0 mm | - | 32 W/m² | - |
| 1777894398 | 5° C | 99% | 1017.8 hPa | 0 mm | - | 30 W/m² | - |
| 1777894096 | 3.89° C | 99% | 1017.6 hPa | 0 mm | - | 25 W/m² | - |
| 1777893793 | 3.89° C | 99% | 1017.4 hPa | 0 mm | - | 25 W/m² | - |
| 1777893489 | 3.89° C | 99% | 1017.7 hPa | 0 mm | - | 20 W/m² | - |
| 1777893186 | 3.33° C | 99% | 1017.7 hPa | 0 mm | - | 18 W/m² | - |
| 1777892882 | 2.78° C | 99% | 1017.7 hPa | 0 mm | - | 18 W/m² | - |
| 1777892579 | 2.78° C | 99% | 1017.7 hPa | 0 mm | - | 15 W/m² | - |
| 1777892274 | 2.78° C | 99% | 1017.7 hPa | 0 mm | - | 13 W/m² | - |
| 1777891971 | 2.78° C | 99% | 1017.8 hPa | 0 mm | - | 10 W/m² | - |
| 1777891669 | 2.78° C | 99% | 1017.6 hPa | 0 mm | - | 8 W/m² | - |
| 1777891364 | 2.78° C | 99% | 1017.6 hPa | 0 mm | - | 6 W/m² | - |
| 1777891060 | 2.78° C | 99% | 1017.6 hPa | 0 mm | - | 4 W/m² | - |
| 1777890755 | 2.78° C | 99% | 1017.5 hPa | 0 mm | - | 3 W/m² | - |
| 1777890451 | 3.33° C | 99% | 1017.6 hPa | 0 mm | - | 2 W/m² | - |
| 1777890147 | 3.33° C | 99% | 1017.6 hPa | 0 mm | - | 1 W/m² | - |
| 1777889844 | 3.33° C | 99% | 1017.5 hPa | 0 mm | - | 0 W/m² | - |
| 1777889542 | 3.33° C | 99% | 1017.7 hPa | 0 mm | - | 0 W/m² | - |
| 1777889239 | 2.78° C | 99% | 1017.6 hPa | 0 mm | - | 0 W/m² | - |
| 1777888937 | 2.78° C | 99% | 1017.5 hPa | 0 mm | - | 0 W/m² | - |
| 1777888634 | 2.78° C | 99% | 1017.6 hPa | 0 mm | - | 0 W/m² | - |
| 1777888329 | 2.78° C | 99% | 1017.7 hPa | 0 mm | - | 0 W/m² | - |
* Rain latest hour (hover to see other rain measurements)
** Current wind speed in m/s (hover to see current wind gust speed)